Pocatello, ID

1:53 AM MDT on September 23, 2017 (GMT -0600)
Pocatello Regional

Weather History for KPIH - May, 2013

Change the Weather History Date:

Friday, May 24, 2013

  Actual Average Record
Temperature  
Mean Temperature 54 °F 56 °F  
Max Temperature 71 °F 70 °F 89 °F (2003)
Min Temperature 36 °F 42 °F 30 °F (1960)
Degree Days  
Heating Degree Days 11 9  
Month to date heating degree days 228 294  
Since 1 July heating degree days 6754 6988  
Cooling Degree Days 0 0  
Month to date cooling degree days 9 0  
Year to date cooling degree days 9 0  
Growing Degree Days 3 (Base 50)    
Moisture  
Dew Point 19 °F    
Average Humidity 34    
Maximum Humidity 59    
Minimum Humidity 9    
Precipitation  
Precipitation 0.00 in 0.05 in 0.60 in (2009)
Month to date precipitation 0.42 1.13  
Year to date precipitation 2.76 5.50  
Snow  
Snow 0.00 in - - ()
Month to date snowfall 0.0  
Since 1 July snowfall 37.8  
Snow Depth 0.00 in    
Sea Level Pressure  
Sea Level Pressure 29.93 in    
Wind  
Wind Speed 8 mph (South)    
Max Wind Speed 24 mph    
Max Gust Speed 30 mph    
Visibility 10 miles    
Events      
T = Trace of Precipitation, MM = Missing Value Source: NWS Daily Summary

Daily Weather History Graph

Daily Weather History Graph

Search for Another Location

Airport or City:

Trip Planner

Search our weather history database for the weather conditions in past years. The results will help you decide how hot, cold, wet, or windy it might be!

Date:

Astronomy

May. 24, 2013 Rise Set
Actual Time 5:59 AM MDT 8:55 PM MDT
Civil Twilight 5:25 AM MDT 9:29 PM MDT
Nautical Twilight 4:42 AM MDT 10:12 PM MDT
Astronomical Twilight 3:52 AM MDT 11:03 PM MDT
Moon 8:41 PM MDT (5/24) 5:35 AM MDT (5/24)
Length of Visible Light 16h 04m
Length of Day
14h 56m
Full, 100% of the Moon is Illuminated
May 24
Full
May 24
Full
May 31
Last Quarter
Jun 8
New
Jun 16
First Quarter

Hourly Weather History & Observations

Time (MDT) Temp. Windchill Dew Point Humidity Pressure Visibility Wind Dir Wind Speed Gust Speed Precip Events Conditions
12:53 AM 46.9 °F - 32.0 °F 56% 29.92 in 10.0 mi South 4.6 mph - N/A   Partly Cloudy
1:53 AM 48.0 °F - 25.0 °F 41% 29.94 in 10.0 mi SSW 12.7 mph - N/A   Clear
2:53 AM 43.0 °F 36.4 °F 21.0 °F 42% 29.96 in 10.0 mi SSW 12.7 mph - N/A   Clear
3:53 AM 44.1 °F 37.7 °F 18.0 °F 35% 29.95 in 10.0 mi SSW 12.7 mph - N/A   Clear
4:53 AM 42.1 °F 37.1 °F 17.1 °F 37% 29.97 in 10.0 mi South 8.1 mph - N/A   Clear
5:53 AM 37.9 °F - 21.9 °F 53% 30.00 in 10.0 mi Calm Calm - N/A   Clear
6:53 AM 39.9 °F - 26.1 °F 58% 30.04 in 10.0 mi Calm Calm - N/A   Clear
7:53 AM 48.0 °F - 28.9 °F 48% 30.03 in 10.0 mi East 5.8 mph - N/A   Clear
8:53 AM 53.1 °F - 21.0 °F 29% 30.04 in 10.0 mi Calm Calm - N/A   Clear
9:53 AM 55.9 °F - 21.0 °F 26% 30.02 in 10.0 mi NE 6.9 mph - N/A   Clear
10:53 AM 59.0 °F - 14.0 °F 17% 30.00 in 10.0 mi South 6.9 mph 19.6 mph 0.00 in   Clear
11:53 AM 64.0 °F - 14.0 °F 14% 29.97 in 10.0 mi SSW 12.7 mph 20.7 mph N/A   Partly Cloudy
12:53 PM 63.0 °F - 19.9 °F 19% 29.97 in 10.0 mi WNW 9.2 mph 17.3 mph N/A   Partly Cloudy
1:53 PM 66.9 °F - 12.9 °F 12% 29.94 in 10.0 mi SW 15.0 mph 26.5 mph N/A   Partly Cloudy
2:53 PM 68.0 °F - 14.0 °F 12% 29.93 in 10.0 mi SW 11.5 mph 24.2 mph N/A   Partly Cloudy
3:53 PM 69.1 °F - 10.9 °F 11% 29.91 in 10.0 mi South 13.8 mph 24.2 mph N/A   Partly Cloudy
4:53 PM 70.0 °F - 9.0 °F 9% 29.90 in 10.0 mi SW 17.3 mph 25.3 mph N/A   Clear
5:53 PM 69.1 °F - 10.9 °F 11% 29.90 in 10.0 mi South 16.1 mph 23.0 mph N/A   Clear
6:53 PM 70.0 °F - 9.0 °F 9% 29.87 in 10.0 mi SSW 11.5 mph 19.6 mph N/A   Clear
7:53 PM 66.0 °F - 17.1 °F 15% 29.86 in 10.0 mi SSE 13.8 mph - N/A   Clear
8:53 PM 55.0 °F - 21.9 °F 28% 29.86 in 10.0 mi South 6.9 mph - N/A   Clear
9:53 PM 52.0 °F - 21.0 °F 30% 29.85 in 10.0 mi Calm Calm - N/A   Clear
10:53 PM 57.0 °F - 21.0 °F 25% 29.83 in 10.0 mi East 3.5 mph - N/A   Clear
11:53 PM 50.0 °F - 24.1 °F 36% 29.82 in 10.0 mi Calm Calm - N/A   Clear